Regional Weather Roundup
Issued by NWS

Home | Current Version | Previous Version | Text Only | Print | Product List | Glossary Off
Versions: 1 2 3 4 5 6 7 8 9 10 11 12 13 14 15 16 17 18 19 20 21 22 23 24 25 26 27 28 29 30 31 32 33 34 35 36 37 38 39 40 41 42 43 44 45 46 47 48 49 50

000
ASUS43 KLOT 230700
RWRIL

ILLINOIS REGIONAL WEATHER ROUNDUP
NATIONAL WEATHER SERVICE CHICAGO/ROMEOVILLE IL
200 AM CDT WED JUL 23 2014

NOTE: "FAIR" INDICATES FEW OR NO CLOUDS BELOW 12,000 FEET WITH NO
SIGNIFICANT WEATHER AND/OR OBSTRUCTIONS TO VISIBILITY.

* THESE STATIONS ARE NOT UNDER NWS QUALITY CONTROL. THEY ALSO MAY NOT
  REPORT WEATHER SUCH AS PRECIPITATION OR FOG.

ILZ001-002-007-009-015-016-024-230800-
NORTHWEST ILLINOIS

CITY           SKY/WX    TMP DP  RH WIND       PRES   REMARKS
MOLINE         CLEAR     76  67  73 N8        30.06R
STERLING*      MOCLDY    73  66  78 NE7       30.06R
$$

ILZ003-004-008-010-011-017-018-230800-
NORTH CENTRAL ILLINOIS

CITY           SKY/WX    TMP DP  RH WIND       PRES   REMARKS
ROCKFORD       PTCLDY    74  63  68 N15       30.07R
FREEPORT*      CLEAR     69  65  86 N6        30.10R
$$

ILZ005-006-012>014-019>023-230800-
NORTHEAST ILLINOIS

CITY           SKY/WX    TMP DP  RH WIND       PRES   REMARKS
CHICAGO-OHARE  MOCLDY    69  59  70 N22G31    30.02S
CHICAGO-MIDWAY CLOUDY    73  66  78 N20G30    30.03R
AURORA         PTCLDY    74  64  71 NE16G29   30.03R
LANSING*       CLOUDY    71  68  91 N13G18    30.01R
WAUKEGAN       PTCLDY    64  57  78 N14G24    30.06R
DUPAGE AIRPORT CLOUDY    72  63  73 NE20G26   30.03R
WHEELING       CLOUDY    68  60  75 N15G24    30.06R
NORTHERLY ISL    N/A     68  62  81 N18         N/A
$$

LMZ740>746-230800-
SOUTHERN LAKE MICHIGAN

STATION/POSITION SKY/WX   TEMP    WIND        PRES    VSBY  WAVE
                          AIR SEA DIR/SP/G                  HT/PER
                          (F)     (DEG/KT/KT) (MB)    (MI)  (FT/S)
SOUTHERN BUOY              65 63  360/ 25/ 31 1015.6R         3/ 4
WAUKEGAN HARBOR            63      10/ 22/ 27 1018.6R
HARRISON CRIB              71      20/ 22/ 26   N/A
BURNHAM HARBOR             68     350/ 23       N/A
CALUMET HARBOR             70     350/ 13/ 18 1015.3R
BURNS HARBOR               71     290/  8/ 47 1015.9F
MICHIGAN CITY              71     220/ 17/ 20   N/A
$$

ILZ025>027-034>036-040-047-049-050-058-095>099-230800-
WEST-CENTRAL ILLINOIS

CITY           SKY/WX    TMP DP  RH WIND       PRES   REMARKS
QUINCY         PTCLDY    80  76  87 N10       30.04R HX  86
GALESBURG*     CLEAR     74  72  93 N8        30.06R
MACOMB*        CLEAR     75  73  92 N10       30.06R
$$

ILZ028>032-037-038-041>044-048-051>054-059>061-230800-
CENTRAL ILLINOIS

CITY           SKY/WX    TMP DP  RH WIND       PRES   REMARKS
PONTIAC        MOCLDY    79  77  94 W8        30.00R THUNDER FOG
PEORIA         MOCLDY    80  74  81 NW6       30.01S HX  85
SPRINGFIELD    CLOUDY    77  72  84 W5        30.00F
TAYLORVILLE    NOT AVBL
$$

ILZ033-039-045-046-055>057-062-063-230800-
EAST-CENTRAL ILLINOIS

CITY           SKY/WX    TMP DP  RH WIND       PRES   REMARKS
CHAMPAIGN      CLOUDY    75  70  84 SW5       30.01F
MATTOON        MOCLDY    76  67  73 SW7       30.00F
$$

ILZ079-100>102-230800-
SOUTHWEST ILLINOIS

CITY           SKY/WX    TMP DP  RH WIND       PRES   REMARKS
CAHOKIA*       CLOUDY    81  71  71 SW3       30.01S HX  85
SPARTA*        CLOUDY    75  68  78 S7        30.02F
$$

ILZ064>066-069>071-074>076-080>082-084>086-088>090-092>094-230800-
SOUTH-CENTRAL ILLINOIS

CITY           SKY/WX    TMP DP  RH WIND       PRES   REMARKS
CARBONDALE     MOCLDY    72  68  87 S5        30.03F
MT. VERNON     PTCLDY    72  66  83 CALM      30.03F
SALEM*         MOCLDY    77  71  81 CALM      30.02F
$$

ILZ067-068-072-073-078-083-087-091-230800-
SOUTHEAST ILLINOIS

CITY           SKY/WX    TMP DP  RH WIND       PRES   REMARKS
FAIRFIELD*     PTCLDY    72  70  94 S5        30.01F FOG
HARRISBURG*    CLEAR     68  68 100 CALM      30.05F FOG
ROBINSON*      PTCLDY    72  69  93 CALM      30.02F
$$

ABBREVIATIONS USED IN REMARKS
   TC - TEMPERATURE IN CELSIUS
  WCI - WIND CHILL INDEX
   HX - HEAT INDEX
  VSB - VISIBILITY
$$




USA.gov is the U.S. government's official web portal to all federal, state and local government web resources and services.